{"data":{"norad_id":67892,"epoch":"2026-09-17T19:11:53.056896Z","epoch_age_seconds":296448,"freshness":"STALE","line1":"1 67892U 26035P   26260.79991964  .00012799  00000+0  39824-3 0  9994","line2":"2 67892  97.2834 192.7574 0002312 103.2448 256.9052 15.33433135 33435","mean_motion":15.33433135,"eccentricity":0.0002312,"inclination_deg":97.2834,"raan_deg":192.7574,"arg_perigee_deg":103.2448,"mean_anomaly_deg":256.9052,"bstar":0.00039824,"rev_number":3343,"period_min":93.906931259836,"perigee_km":463.99620957983,"apogee_km":467.16074361621,"semimajor_km":6843.715476598,"source":"CELESTRAK","updated_at":"2026-09-20T09:00:43.698053Z"}}